GLP115 ULLI-URKK

Flight info

Callsign GLP115
Flight time 4h 14m
Altitude 35000
Route SUGIN T873 TOKNU L4 PIKID N50 DITEK A924 RALAN/K0841F360 DCT IPLED DCT GOTIK DCT MEMZA DCT VENFO DCT PROZR DCT MOBIT DCT RULAB
Aircraft B738/M-SDE2E3FGHIRWXY/LB1

Departure

Time 2026-05-07 05:47
Airport Pulkovo Airport (ULLI)

Arrival

Time 2026-05-07 10:01
Airport Krasnodar Pashkovsky International Airport (URKK)
Time Latitude Longitude Altitude Speed Heading
2026-05-07 04:55 59.79893 30.26695 84 ft 0 kts 111°
2026-05-07 04:57 59.79893 30.26694 81 ft 0 kts 111°
2026-05-07 04:57 59.79893 30.26695 81 ft 0 kts 111°
2026-05-07 04:58 59.79893 30.26694 81 ft 0 kts 111°
2026-05-07 04:58 59.79893 30.26695 81 ft 0 kts 111°
2026-05-07 05:01 59.79893 30.26694 81 ft 0 kts 111°
2026-05-07 05:01 59.79893 30.26695 81 ft 0 kts 111°
2026-05-07 05:33 59.79893 30.26696 80 ft 0 kts 111°
2026-05-07 05:35 59.79894 30.26688 80 ft 3 kts 111°
2026-05-07 05:35 59.79901 30.26637 84 ft 4 kts 94°
2026-05-07 05:35 59.79897 30.26592 83 ft 4 kts 42°
2026-05-07 05:35 59.79890 30.26581 81 ft 1 kts 17°
2026-05-07 05:39 59.79891 30.26582 79 ft 1 kts 17°
2026-05-07 05:39 59.79905 30.26590 82 ft 3 kts 15°
2026-05-07 05:39 59.79937 30.26609 79 ft 6 kts 17°
2026-05-07 05:39 59.79986 30.26637 81 ft 9 kts 14°
2026-05-07 05:40 59.80051 30.26676 84 ft 10 kts 17°
2026-05-07 05:40 59.80115 30.26714 79 ft 9 kts 16°
2026-05-07 05:40 59.80173 30.26748 79 ft 8 kts 16°
2026-05-07 05:40 59.80226 30.26779 84 ft 8 kts 17°
2026-05-07 05:41 59.80278 30.26810 80 ft 8 kts 16°
2026-05-07 05:41 59.80331 30.26841 83 ft 8 kts 17°
2026-05-07 05:41 59.80383 30.26857 80 ft 6 kts 341°
2026-05-07 05:41 59.80400 30.26821 81 ft 1 kts 301°
2026-05-07 05:42 59.80405 30.26795 84 ft 4 kts 290°
2026-05-07 05:42 59.80417 30.26718 80 ft 8 kts 287°
2026-05-07 05:42 59.80435 30.26596 82 ft 10 kts 286°
2026-05-07 05:42 59.80458 30.26444 79 ft 12 kts 287°
2026-05-07 05:43 59.80485 30.26263 78 ft 15 kts 287°
2026-05-07 05:43 59.80518 30.26049 67 ft 18 kts 286°
2026-05-07 05:43 59.80554 30.25802 71 ft 19 kts 287°
2026-05-07 05:43 59.80591 30.25554 66 ft 18 kts 286°
2026-05-07 05:44 59.80627 30.25317 73 ft 17 kts 287°
2026-05-07 05:44 59.80660 30.25096 71 ft 16 kts 286°
2026-05-07 05:44 59.80691 30.24893 65 ft 15 kts 287°
2026-05-07 05:44 59.80719 30.24706 67 ft 13 kts 288°
2026-05-07 05:45 59.80786 30.24604 64 ft 12 kts 347°
2026-05-07 05:45 59.80868 30.24569 66 ft 12 kts 349°
2026-05-07 05:45 59.80944 30.24584 67 ft 11 kts 43°
2026-05-07 05:45 59.80947 30.24732 64 ft 12 kts 105°
2026-05-07 05:46 59.80911 30.24972 69 ft 38 kts 106°
2026-05-07 05:46 59.80760 30.25993 72 ft 114 kts 107°
2026-05-07 05:46 59.80471 30.27946 100 ft 177 kts 105°
2026-05-07 05:46 59.80091 30.30529 363 ft 207 kts 106°
2026-05-07 05:47 59.79695 30.33332 760 ft 208 kts 105°
2026-05-07 05:47 59.79343 30.36144 1084 ft 214 kts 102°
2026-05-07 05:47 59.79078 30.38042 1400 ft 204 kts 107°
2026-05-07 05:47 59.78664 30.40616 2053 ft 193 kts 107°
2026-05-07 05:48 59.78239 30.43296 2268 ft 213 kts 107°
2026-05-07 05:48 59.77783 30.46156 2688 ft 229 kts 108°
2026-05-07 05:48 59.77293 30.49309 3192 ft 240 kts 106°
2026-05-07 05:48 59.76810 30.52463 3851 ft 243 kts 105°
2026-05-07 05:49 59.76323 30.55694 4569 ft 246 kts 106°
2026-05-07 05:49 59.75830 30.58976 5237 ft 250 kts 105°
2026-05-07 05:49 59.75343 30.62364 5878 ft 254 kts 104°
2026-05-07 05:49 59.74866 30.65717 6506 ft 258 kts 104°
2026-05-07 05:50 59.74375 30.69167 7087 ft 262 kts 105°
2026-05-07 05:50 59.73876 30.72668 7663 ft 266 kts 105°
2026-05-07 05:50 59.73368 30.76218 8263 ft 269 kts 105°
2026-05-07 05:50 59.72853 30.79802 8817 ft 274 kts 106°
2026-05-07 05:51 59.72326 30.83461 9396 ft 278 kts 107°
2026-05-07 05:51 59.71790 30.87178 9941 ft 283 kts 107°
2026-05-07 05:51 59.71240 30.90968 10288 ft 294 kts 107°
2026-05-07 05:51 59.70655 30.94990 10415 ft 313 kts 107°
2026-05-07 05:52 59.70036 30.99238 10553 ft 330 kts 107°
2026-05-07 05:52 59.69380 31.03732 10685 ft 347 kts 107°
2026-05-07 05:52 59.68695 31.08412 10955 ft 359 kts 107°
2026-05-07 05:52 59.67995 31.13197 11395 ft 365 kts 108°
2026-05-07 05:53 59.67282 31.18042 11893 ft 369 kts 108°
2026-05-07 05:53 59.66557 31.22958 12381 ft 375 kts 109°
2026-05-07 05:53 59.65827 31.27885 12846 ft 380 kts 109°
2026-05-07 05:53 59.65065 31.33013 13332 ft 386 kts 109°
2026-05-07 05:54 59.64312 31.38071 13828 ft 392 kts 110°
2026-05-07 05:54 59.63536 31.43258 14291 ft 396 kts 110°
2026-05-07 05:54 59.62748 31.48522 14814 ft 400 kts 110°
2026-05-07 05:54 59.61954 31.53806 15322 ft 404 kts 110°
2026-05-07 05:55 59.61149 31.59140 15805 ft 408 kts 110°
2026-05-07 05:55 59.60333 31.64535 16294 ft 412 kts 110°
2026-05-07 05:55 59.59505 31.69987 16780 ft 416 kts 110°
2026-05-07 05:55 59.58664 31.75513 17259 ft 421 kts 111°
2026-05-07 05:56 59.57818 31.81048 17733 ft 425 kts 111°
2026-05-07 05:56 59.56968 31.86595 18191 ft 429 kts 111°
2026-05-07 05:56 59.56087 31.92323 18611 ft 432 kts 111°
2026-05-07 05:56 59.55224 31.97929 19060 ft 435 kts 111°
2026-05-07 05:57 59.54328 32.03719 19496 ft 438 kts 111°
2026-05-07 05:57 59.53342 32.09398 19888 ft 437 kts 121°
2026-05-07 05:57 59.51696 32.14249 20277 ft 427 kts 139°
2026-05-07 05:57 59.49619 32.18385 20753 ft 425 kts 142°
2026-05-07 05:58 59.47483 32.22481 21155 ft 428 kts 142°
2026-05-07 05:58 59.45337 32.26564 21526 ft 432 kts 142°
2026-05-07 05:58 59.43175 32.30695 21906 ft 435 kts 142°
2026-05-07 05:58 59.41001 32.34871 22298 ft 438 kts 142°
2026-05-07 05:59 59.38824 32.39072 22686 ft 441 kts 142°
2026-05-07 05:59 59.36637 32.43304 23061 ft 443 kts 142°
2026-05-07 05:59 59.34437 32.47560 23431 ft 446 kts 142°
2026-05-07 05:59 59.32221 32.51846 23761 ft 449 kts 142°
2026-05-07 06:00 59.30020 32.56094 24073 ft 451 kts 142°
2026-05-07 06:00 59.27780 32.60410 24397 ft 452 kts 142°
2026-05-07 06:00 59.25537 32.64722 24699 ft 454 kts 142°
2026-05-07 06:00 59.23275 32.69061 24996 ft 456 kts 142°
2026-05-07 06:01 59.21002 32.73413 25279 ft 458 kts 142°
2026-05-07 06:01 59.18716 32.77778 25569 ft 460 kts 142°
2026-05-07 06:01 59.16421 32.82153 25846 ft 462 kts 143°
2026-05-07 06:01 59.14119 32.86533 26119 ft 464 kts 143°
2026-05-07 06:02 59.11805 32.90927 26416 ft 466 kts 143°
2026-05-07 06:02 59.09479 32.95335 26647 ft 468 kts 143°
2026-05-07 06:02 59.07140 32.99759 26907 ft 470 kts 143°
2026-05-07 06:02 59.04792 33.04189 27174 ft 472 kts 143°
2026-05-07 06:03 59.02419 33.08660 27426 ft 474 kts 143°
2026-05-07 06:03 59.00059 33.13097 27673 ft 476 kts 143°
2026-05-07 06:03 58.97676 33.17567 27908 ft 478 kts 143°
2026-05-07 06:03 58.95309 33.22002 28108 ft 480 kts 143°
2026-05-07 06:04 58.92903 33.26500 28350 ft 482 kts 143°
2026-05-07 06:04 58.90482 33.31013 28573 ft 483 kts 143°
2026-05-07 06:04 58.88049 33.35539 28809 ft 485 kts 143°
2026-05-07 06:04 58.85619 33.40051 29128 ft 484 kts 143°
2026-05-07 06:05 58.83197 33.44540 29483 ft 483 kts 144°
2026-05-07 06:05 58.80780 33.49012 29792 ft 482 kts 143°
2026-05-07 06:05 58.78354 33.53489 30057 ft 483 kts 144°
2026-05-07 06:05 58.75919 33.57971 30299 ft 482 kts 144°
2026-05-07 06:06 58.73500 33.62418 30584 ft 481 kts 144°
2026-05-07 06:06 58.71091 33.66839 30884 ft 479 kts 144°
2026-05-07 06:06 58.68678 33.71257 31156 ft 478 kts 144°
2026-05-07 06:06 58.66271 33.75653 31402 ft 477 kts 144°
2026-05-07 06:07 58.63866 33.80036 31668 ft 476 kts 143°
2026-05-07 06:07 58.61464 33.84406 31945 ft 475 kts 143°
2026-05-07 06:07 58.59068 33.88757 32210 ft 473 kts 143°
2026-05-07 06:07 58.56679 33.93085 32451 ft 472 kts 143°
2026-05-07 06:08 58.54298 33.97392 32698 ft 471 kts 143°
2026-05-07 06:08 58.51936 34.01654 32938 ft 470 kts 143°
2026-05-07 06:08 58.49564 34.05927 33183 ft 469 kts 143°
2026-05-07 06:08 58.47183 34.10209 33417 ft 468 kts 143°
2026-05-07 06:09 58.44818 34.14452 33633 ft 467 kts 143°
2026-05-07 06:09 58.42442 34.18706 33849 ft 467 kts 143°
2026-05-07 06:09 58.40070 34.22947 34068 ft 466 kts 143°
2026-05-07 06:09 58.37706 34.27164 34253 ft 465 kts 143°
2026-05-07 06:10 58.35346 34.31366 34385 ft 465 kts 143°
2026-05-07 06:10 58.32999 34.35535 34506 ft 466 kts 143°
2026-05-07 06:10 58.30602 34.39787 34659 ft 465 kts 143°
2026-05-07 06:10 58.29052 34.42534 34762 ft 465 kts 143°
2026-05-07 06:11 58.27228 34.45761 34872 ft 465 kts 143°
2026-05-07 06:11 58.24860 34.49942 34982 ft 465 kts 143°
2026-05-07 06:11 58.22474 34.54130 35002 ft 466 kts 145°
2026-05-07 06:12 58.17141 34.60726 34999 ft 452 kts 163°
2026-05-07 06:12 58.11321 34.65334 35002 ft 455 kts 164°
2026-05-07 06:13 58.05453 34.69955 34993 ft 458 kts 163°
2026-05-07 06:13 57.99561 34.74668 34992 ft 460 kts 163°
2026-05-07 06:14 57.93701 34.79376 34985 ft 460 kts 163°
2026-05-07 06:14 57.87806 34.84095 34976 ft 460 kts 163°
2026-05-07 06:15 57.81926 34.88780 34973 ft 458 kts 163°
2026-05-07 06:15 57.76065 34.93433 34964 ft 457 kts 163°
2026-05-07 06:16 57.70244 34.98188 34967 ft 459 kts 158°
2026-05-07 06:16 57.64689 35.04114 34962 ft 461 kts 155°
2026-05-07 06:17 57.59191 35.10241 34960 ft 460 kts 155°
2026-05-07 06:17 57.53689 35.16274 34956 ft 458 kts 155°
2026-05-07 06:18 57.48176 35.22222 34954 ft 457 kts 156°
2026-05-07 06:18 57.42657 35.28131 34952 ft 457 kts 156°
2026-05-07 06:19 57.37150 35.34007 34950 ft 457 kts 156°
2026-05-07 06:19 57.31665 35.39841 34941 ft 457 kts 156°
2026-05-07 06:20 57.26150 35.45687 34945 ft 458 kts 156°
2026-05-07 06:20 57.20619 35.51532 34940 ft 458 kts 156°
2026-05-07 06:21 57.15070 35.57375 34938 ft 459 kts 156°
2026-05-07 06:21 57.09512 35.63207 34927 ft 460 kts 156°
2026-05-07 06:22 57.03947 35.69027 34926 ft 460 kts 155°
2026-05-07 06:22 56.95578 35.77740 34927 ft 461 kts 155°
2026-05-07 06:23 56.90022 35.83500 34916 ft 461 kts 155°
2026-05-07 06:23 56.84431 35.89275 34914 ft 462 kts 155°
2026-05-07 06:24 56.78839 35.95034 34913 ft 462 kts 155°
2026-05-07 06:24 56.76134 35.98254 34896 ft 468 kts 144°
2026-05-07 06:24 56.73817 36.02471 34916 ft 475 kts 133°
2026-05-07 06:25 56.71963 36.07503 34900 ft 482 kts 120°
2026-05-07 06:25 56.70588 36.13118 34925 ft 484 kts 116°
2026-05-07 06:25 56.68034 36.24467 34906 ft 485 kts 116°
2026-05-07 06:26 56.65427 36.35712 34897 ft 485 kts 116°
2026-05-07 06:26 56.62735 36.46961 34899 ft 485 kts 117°
2026-05-07 06:27 56.59990 36.58128 34889 ft 482 kts 123°
2026-05-07 06:27 56.58070 36.63035 34904 ft 473 kts 137°
2026-05-07 06:27 56.55648 36.66991 34894 ft 465 kts 149°
2026-05-07 06:28 56.52867 36.69891 34897 ft 457 kts 161°
2026-05-07 06:28 56.49956 36.72150 34905 ft 456 kts 161°
2026-05-07 06:28 56.44114 36.76651 34893 ft 457 kts 161°
2026-05-07 06:29 56.38257 36.81257 34882 ft 458 kts 160°
2026-05-07 06:29 56.32449 36.85871 34882 ft 459 kts 160°
2026-05-07 06:30 56.26606 36.90503 34879 ft 460 kts 160°
2026-05-07 06:30 56.20736 36.95137 34876 ft 460 kts 160°
2026-05-07 06:31 56.14877 36.99746 34878 ft 461 kts 160°
2026-05-07 06:31 56.09155 37.04989 34867 ft 467 kts 148°
2026-05-07 06:32 56.04450 37.13012 34871 ft 476 kts 130°
2026-05-07 06:32 56.00567 37.22637 34883 ft 477 kts 129°
2026-05-07 06:33 55.96307 37.31601 34878 ft 471 kts 142°
2026-05-07 06:33 55.91002 37.38294 34892 ft 466 kts 150°
2026-05-07 06:34 55.85561 37.44594 34884 ft 466 kts 150°
2026-05-07 06:34 55.80142 37.50966 34884 ft 466 kts 149°
2026-05-07 06:35 55.74744 37.57349 34888 ft 466 kts 149°
2026-05-07 06:35 55.69346 37.63715 34882 ft 466 kts 149°
2026-05-07 06:36 55.63947 37.69922 34887 ft 463 kts 153°
2026-05-07 06:36 55.58286 37.75317 34910 ft 462 kts 156°
2026-05-07 06:37 55.52591 37.80568 34908 ft 462 kts 155°
2026-05-07 06:37 55.47871 37.84987 34914 ft 461 kts 155°
2026-05-07 06:38 55.42198 37.90322 34907 ft 461 kts 155°
2026-05-07 06:38 55.36295 37.94401 34901 ft 453 kts 172°
2026-05-07 06:39 55.30102 37.96209 34909 ft 451 kts 174°
2026-05-07 06:39 55.23927 37.97935 34912 ft 451 kts 173°
2026-05-07 06:40 55.17736 37.99731 34915 ft 451 kts 173°
2026-05-07 06:40 55.11526 38.01564 34913 ft 451 kts 173°
2026-05-07 06:41 55.05345 38.03389 34923 ft 451 kts 173°
2026-05-07 06:41 54.99137 38.05213 34920 ft 451 kts 173°
2026-05-07 06:42 54.92957 38.07021 34924 ft 451 kts 173°
2026-05-07 06:42 54.86753 38.08830 34927 ft 451 kts 173°
2026-05-07 06:43 54.80556 38.10631 34933 ft 452 kts 173°
2026-05-07 06:43 54.74397 38.12755 34923 ft 455 kts 163°
2026-05-07 06:44 54.68828 38.17872 34930 ft 461 kts 143°
2026-05-07 06:44 54.64075 38.25375 34933 ft 463 kts 139°
2026-05-07 06:45 54.59391 38.33043 34937 ft 464 kts 139°
2026-05-07 06:45 54.54660 38.40643 34939 ft 464 kts 139°
2026-05-07 06:46 54.49909 38.48175 34947 ft 464 kts 139°
2026-05-07 06:46 54.45161 38.55664 34944 ft 464 kts 139°
2026-05-07 06:47 54.40421 38.63119 34949 ft 464 kts 139°
2026-05-07 06:47 54.35651 38.70600 34955 ft 464 kts 139°
2026-05-07 06:48 54.30890 38.78043 34952 ft 464 kts 139°
2026-05-07 06:48 54.26117 38.85483 34954 ft 463 kts 139°
2026-05-07 06:49 54.20998 38.92105 34951 ft 459 kts 154°
2026-05-07 06:49 54.15309 38.97025 34959 ft 459 kts 155°
2026-05-07 06:50 54.09619 39.01883 34958 ft 460 kts 154°
2026-05-07 06:50 54.03922 39.06830 34960 ft 460 kts 154°
2026-05-07 06:51 53.98229 39.11798 34960 ft 460 kts 154°
2026-05-07 06:51 53.92521 39.16762 34962 ft 460 kts 154°
2026-05-07 06:52 53.86828 39.21694 34967 ft 460 kts 154°
2026-05-07 06:52 53.81120 39.26618 34979 ft 460 kts 154°
2026-05-07 06:53 53.75393 39.31541 34981 ft 461 kts 154°
2026-05-07 06:53 53.69678 39.36438 34966 ft 461 kts 154°
2026-05-07 06:54 53.63985 39.41302 34974 ft 461 kts 154°
2026-05-07 06:54 53.58248 39.46189 34962 ft 461 kts 154°
2026-05-07 06:55 53.52523 39.51051 34985 ft 462 kts 154°
2026-05-07 06:55 53.46786 39.55908 34988 ft 462 kts 154°
2026-05-07 06:56 53.41037 39.60774 34977 ft 463 kts 153°
2026-05-07 06:56 53.35427 39.66077 34984 ft 463 kts 150°
2026-05-07 06:57 53.29885 39.71586 34981 ft 463 kts 150°
2026-05-07 06:57 53.24315 39.77062 34975 ft 464 kts 150°
2026-05-07 06:58 53.18731 39.82478 34978 ft 464 kts 150°
2026-05-07 06:58 53.13142 39.87864 34982 ft 464 kts 150°
2026-05-07 06:59 53.07550 39.93236 34984 ft 464 kts 150°
2026-05-07 06:59 53.01938 39.98614 34986 ft 465 kts 150°
2026-05-07 07:00 52.96368 40.03937 34988 ft 465 kts 151°
2026-05-07 07:00 52.90762 40.09278 34979 ft 465 kts 151°
2026-05-07 07:01 52.85154 40.14606 34997 ft 465 kts 151°
2026-05-07 07:01 52.79543 40.19921 34985 ft 465 kts 151°
2026-05-07 07:02 52.73918 40.25234 34990 ft 465 kts 151°
2026-05-07 07:02 52.68298 40.30527 34999 ft 466 kts 151°
2026-05-07 07:03 52.62691 40.35791 34997 ft 466 kts 151°
2026-05-07 07:03 52.57013 40.41105 34995 ft 466 kts 151°
2026-05-07 07:04 52.51373 40.46370 34999 ft 466 kts 151°
2026-05-07 07:04 52.45773 40.51601 34995 ft 466 kts 150°
2026-05-07 07:05 52.40135 40.56880 34992 ft 466 kts 150°
2026-05-07 07:05 52.34496 40.62139 34989 ft 466 kts 150°
2026-05-07 07:06 52.28852 40.67382 34987 ft 466 kts 150°
2026-05-07 07:06 52.23212 40.72602 34993 ft 466 kts 150°
2026-05-07 07:07 52.17559 40.77820 34991 ft 466 kts 150°
2026-05-07 07:07 52.11909 40.83020 34985 ft 466 kts 150°
2026-05-07 07:08 52.06268 40.88198 34986 ft 466 kts 150°
2026-05-07 07:08 52.00790 40.93840 34994 ft 466 kts 144°
2026-05-07 07:09 51.95533 41.00003 34988 ft 466 kts 144°
2026-05-07 07:09 51.90274 41.06150 34989 ft 466 kts 144°
2026-05-07 07:10 51.85018 41.12190 34982 ft 466 kts 144°
2026-05-07 07:10 51.79718 41.18234 34986 ft 466 kts 144°
2026-05-07 07:11 51.74417 41.24263 34994 ft 466 kts 144°
2026-05-07 07:11 51.69113 41.30283 34991 ft 466 kts 144°
2026-05-07 07:12 51.63806 41.36290 34988 ft 466 kts 144°
2026-05-07 07:12 51.58492 41.42288 34988 ft 467 kts 144°
2026-05-07 07:13 51.53169 41.48280 34995 ft 467 kts 144°
2026-05-07 07:13 51.47880 41.54215 34985 ft 467 kts 144°
2026-05-07 07:14 51.42554 41.60175 34985 ft 466 kts 144°
2026-05-07 07:14 51.37231 41.66116 34985 ft 466 kts 144°
2026-05-07 07:15 51.31901 41.72045 34991 ft 466 kts 144°
2026-05-07 07:15 51.26573 41.77955 34984 ft 466 kts 144°
2026-05-07 07:16 51.21246 41.83848 34984 ft 466 kts 144°
2026-05-07 07:16 51.15934 41.89707 34980 ft 466 kts 144°
2026-05-07 07:17 51.10601 41.95572 34987 ft 466 kts 144°
2026-05-07 07:17 51.05263 42.01427 34985 ft 466 kts 144°
2026-05-07 07:18 50.99928 42.07262 34994 ft 466 kts 144°
2026-05-07 07:18 50.94587 42.13086 34981 ft 466 kts 144°
2026-05-07 07:19 50.89252 42.18888 34994 ft 466 kts 144°
2026-05-07 07:19 50.83901 42.24690 34979 ft 466 kts 144°
2026-05-07 07:20 50.78536 42.30491 34990 ft 466 kts 144°
2026-05-07 07:20 50.73185 42.36261 34990 ft 466 kts 144°
2026-05-07 07:21 50.67854 42.41992 34984 ft 466 kts 144°
2026-05-07 07:21 50.62484 42.47749 34993 ft 467 kts 144°
2026-05-07 07:22 50.57109 42.53498 34982 ft 467 kts 144°
2026-05-07 07:22 50.51820 42.59439 35000 ft 466 kts 139°
2026-05-07 07:23 50.46904 42.66108 34982 ft 467 kts 137°
2026-05-07 07:23 50.42870 42.71726 34983 ft 467 kts 137°
2026-05-07 07:24 50.37979 42.78441 34982 ft 467 kts 137°
2026-05-07 07:24 50.33057 42.85101 34980 ft 468 kts 138°
2026-05-07 07:25 50.25629 42.95076 34981 ft 468 kts 138°
2026-05-07 07:26 50.20719 43.01647 34988 ft 468 kts 138°
2026-05-07 07:26 50.15765 43.08263 34983 ft 469 kts 138°
2026-05-07 07:27 50.10798 43.14878 34981 ft 470 kts 138°
2026-05-07 07:27 50.05822 43.21484 34986 ft 470 kts 138°
2026-05-07 07:28 50.00833 43.28090 34979 ft 471 kts 138°
2026-05-07 07:28 49.95847 43.34673 34974 ft 471 kts 139°
2026-05-07 07:29 49.90876 43.41217 34980 ft 471 kts 139°
2026-05-07 07:29 49.85881 43.47776 34979 ft 471 kts 139°
2026-05-07 07:30 49.80877 43.54328 34973 ft 471 kts 139°
2026-05-07 07:30 49.75870 43.60864 34975 ft 471 kts 139°
2026-05-07 07:31 49.70853 43.67396 34973 ft 471 kts 139°
2026-05-07 07:31 49.65834 43.73912 34969 ft 471 kts 139°
2026-05-07 07:32 49.60815 43.80410 34968 ft 471 kts 139°
2026-05-07 07:32 49.55811 43.86872 34965 ft 471 kts 139°
2026-05-07 07:33 49.50785 43.93345 34961 ft 471 kts 139°
2026-05-07 07:33 49.45772 43.99805 34962 ft 471 kts 139°
2026-05-07 07:34 49.40741 44.06279 34956 ft 471 kts 139°
2026-05-07 07:34 49.35723 44.12717 34956 ft 471 kts 139°
2026-05-07 07:35 49.30691 44.19153 34950 ft 470 kts 139°
2026-05-07 07:35 49.25662 44.25567 34948 ft 470 kts 139°
2026-05-07 07:36 49.20658 44.31933 34953 ft 470 kts 139°
2026-05-07 07:36 49.15616 44.38329 34949 ft 470 kts 139°
2026-05-07 07:37 49.10578 44.44701 34949 ft 470 kts 139°
2026-05-07 07:37 49.05533 44.51066 34950 ft 470 kts 139°
2026-05-07 07:38 49.00483 44.57420 34950 ft 470 kts 139°
2026-05-07 07:38 48.95441 44.63746 34953 ft 470 kts 139°
2026-05-07 07:39 48.90389 44.70067 34952 ft 470 kts 139°
2026-05-07 07:39 48.85322 44.76391 34953 ft 470 kts 139°
2026-05-07 07:40 48.80264 44.82583 34943 ft 470 kts 140°
2026-05-07 07:40 48.75100 44.88674 34938 ft 470 kts 141°
2026-05-07 07:41 48.69920 44.94763 34940 ft 470 kts 141°
2026-05-07 07:41 48.64758 45.00845 34942 ft 470 kts 140°
2026-05-07 07:42 48.59628 45.06885 34933 ft 470 kts 141°
2026-05-07 07:42 48.54463 45.12950 34938 ft 470 kts 141°
2026-05-07 07:43 48.49291 45.19005 34938 ft 470 kts 141°
2026-05-07 07:43 48.44119 45.25046 34944 ft 470 kts 141°
2026-05-07 07:44 48.38808 45.30789 34924 ft 472 kts 150°
2026-05-07 07:44 48.32916 45.35154 34936 ft 472 kts 153°
2026-05-07 07:45 48.27019 45.39360 34938 ft 472 kts 153°
2026-05-07 07:45 48.21108 45.43629 34937 ft 472 kts 152°
2026-05-07 07:46 48.15195 45.47940 34939 ft 472 kts 152°
2026-05-07 07:46 48.09280 45.52256 34942 ft 472 kts 152°
2026-05-07 07:47 48.03364 45.56560 34939 ft 473 kts 152°
2026-05-07 07:47 47.97435 45.60859 34939 ft 473 kts 152°
2026-05-07 07:48 47.91546 45.65118 34939 ft 473 kts 152°
2026-05-07 07:48 47.85615 45.69395 34936 ft 473 kts 152°
2026-05-07 07:49 47.79687 45.73660 34937 ft 473 kts 152°
2026-05-07 07:49 47.73756 45.77916 34938 ft 473 kts 152°
2026-05-07 07:50 47.67823 45.82163 34938 ft 473 kts 152°
2026-05-07 07:50 47.61896 45.86395 34935 ft 473 kts 152°
2026-05-07 07:51 47.55968 45.90617 34933 ft 472 kts 152°
2026-05-07 07:51 47.50042 45.94826 34934 ft 472 kts 152°
2026-05-07 07:52 47.44154 45.98998 34938 ft 471 kts 152°
2026-05-07 07:52 47.38200 46.03208 34936 ft 471 kts 152°
2026-05-07 07:53 47.32337 46.07357 34936 ft 471 kts 152°
2026-05-07 07:53 47.26417 46.11541 34934 ft 470 kts 152°
2026-05-07 07:54 47.20517 46.15698 34937 ft 470 kts 152°
2026-05-07 07:54 47.14605 46.19853 34940 ft 470 kts 152°
2026-05-07 07:55 47.08709 46.23986 34937 ft 470 kts 152°
2026-05-07 07:55 47.02843 46.28087 34938 ft 470 kts 152°
2026-05-07 07:56 46.96937 46.32199 34943 ft 470 kts 153°
2026-05-07 07:56 46.91010 46.36314 34941 ft 471 kts 153°
2026-05-07 07:57 46.85079 46.40424 34932 ft 471 kts 153°
2026-05-07 07:57 46.79153 46.44518 34937 ft 471 kts 152°
2026-05-07 07:58 46.73225 46.48606 34928 ft 471 kts 152°
2026-05-07 07:58 46.67294 46.52684 34948 ft 471 kts 153°
2026-05-07 07:59 46.61391 46.56737 34938 ft 471 kts 153°
2026-05-07 07:59 46.55459 46.60798 34937 ft 471 kts 153°
2026-05-07 08:00 46.49528 46.64848 34950 ft 471 kts 153°
2026-05-07 08:00 46.43585 46.68893 34949 ft 471 kts 153°
2026-05-07 08:01 46.37648 46.72930 34948 ft 471 kts 153°
2026-05-07 08:01 46.31704 46.76958 34949 ft 471 kts 153°
2026-05-07 08:02 46.25777 46.80965 34939 ft 470 kts 153°
2026-05-07 08:02 46.19880 46.84951 34957 ft 470 kts 152°
2026-05-07 08:03 46.14112 46.89314 34951 ft 469 kts 149°
2026-05-07 08:03 46.08409 46.93852 34958 ft 468 kts 149°
2026-05-07 08:04 46.02686 46.98332 34958 ft 468 kts 150°
2026-05-07 08:04 45.96949 47.02767 34960 ft 467 kts 150°
2026-05-07 08:05 45.91217 47.07160 34961 ft 466 kts 151°
2026-05-07 08:05 45.85390 47.11287 34965 ft 466 kts 153°
2026-05-07 08:06 45.79590 47.15313 34969 ft 465 kts 153°
2026-05-07 08:06 45.73785 47.19381 34972 ft 465 kts 152°
2026-05-07 08:07 45.67978 47.23460 34972 ft 464 kts 153°
2026-05-07 08:07 45.62173 47.27507 34974 ft 464 kts 153°
2026-05-07 08:08 45.56360 47.31498 34975 ft 463 kts 153°
2026-05-07 08:08 45.50587 47.35446 34979 ft 463 kts 153°
2026-05-07 08:09 45.44769 47.39422 34981 ft 464 kts 154°
2026-05-07 08:09 45.38908 47.43423 34983 ft 464 kts 154°
2026-05-07 08:10 45.33114 47.47369 34977 ft 465 kts 154°
2026-05-07 08:10 45.27278 47.51336 34988 ft 465 kts 154°
2026-05-07 08:11 45.21450 47.55287 34985 ft 465 kts 155°
2026-05-07 08:11 45.15601 47.59242 34991 ft 466 kts 155°
2026-05-07 08:12 45.09731 47.63203 34989 ft 466 kts 155°
2026-05-07 08:12 45.03919 47.67116 34992 ft 466 kts 155°
2026-05-07 08:13 44.99040 47.70393 35000 ft 466 kts 155°
2026-05-07 08:13 44.93179 47.74323 35003 ft 466 kts 156°
2026-05-07 08:14 44.87323 47.78241 35002 ft 465 kts 156°
2026-05-07 08:14 44.81466 47.82150 35011 ft 465 kts 156°
2026-05-07 08:15 44.75604 47.86054 35016 ft 465 kts 156°
2026-05-07 08:15 44.69790 47.89916 35013 ft 466 kts 156°
2026-05-07 08:16 44.63926 47.93802 35010 ft 466 kts 156°
2026-05-07 08:16 44.58060 47.97683 35020 ft 466 kts 156°
2026-05-07 08:17 44.52178 48.01563 35023 ft 467 kts 157°
2026-05-07 08:17 44.46300 48.05414 35029 ft 467 kts 157°
2026-05-07 08:18 44.40410 48.09280 35023 ft 468 kts 155°
2026-05-07 08:18 44.37736 48.11909 35029 ft 473 kts 137°
2026-05-07 08:18 44.35688 48.15517 35019 ft 479 kts 122°
2026-05-07 08:18 44.34371 48.19791 35041 ft 483 kts 107°
2026-05-07 08:19 44.33607 48.24370 35042 ft 485 kts 104°
2026-05-07 08:19 44.32277 48.33626 35024 ft 487 kts 103°
2026-05-07 08:20 44.30934 48.42852 35030 ft 487 kts 104°
2026-05-07 08:20 44.29509 48.52112 35029 ft 488 kts 104°
2026-05-07 08:21 44.28048 48.61373 35028 ft 489 kts 104°
2026-05-07 08:21 44.26576 48.70645 35027 ft 489 kts 105°
2026-05-07 08:22 44.25097 48.79926 35028 ft 490 kts 105°
2026-05-07 08:22 44.23611 48.89201 35035 ft 491 kts 105°
2026-05-07 08:23 44.22115 48.98491 35233 ft 491 kts 105°
2026-05-07 08:23 44.21363 49.03146 35370 ft 491 kts 105°
2026-05-07 08:23 44.20612 49.07777 35472 ft 491 kts 105°
2026-05-07 08:24 44.19099 49.17060 35650 ft 492 kts 105°
2026-05-07 08:24 44.18338 49.21713 35772 ft 492 kts 105°
2026-05-07 08:24 44.17578 49.26352 35900 ft 490 kts 105°
2026-05-07 08:24 44.16819 49.30972 36010 ft 488 kts 105°
2026-05-07 08:25 44.16059 49.35585 36026 ft 489 kts 105°
2026-05-07 08:25 44.15062 49.40078 36000 ft 483 kts 120°
2026-05-07 08:25 44.13242 49.43921 36046 ft 473 kts 136°
2026-05-07 08:25 44.10781 49.46894 36036 ft 464 kts 152°
2026-05-07 08:26 44.04916 49.50011 36024 ft 451 kts 177°
2026-05-07 08:26 43.98693 49.50194 36039 ft 448 kts 184°
2026-05-07 08:27 43.92443 49.50060 36038 ft 449 kts 184°
2026-05-07 08:27 43.86198 49.49994 36043 ft 449 kts 184°
2026-05-07 08:28 43.79942 49.49988 36049 ft 449 kts 183°
2026-05-07 08:28 43.73704 49.49995 36047 ft 448 kts 184°
2026-05-07 08:29 43.67473 49.50000 36055 ft 447 kts 184°
2026-05-07 08:29 43.61256 49.50002 36055 ft 446 kts 184°
2026-05-07 08:30 43.55052 49.50003 36062 ft 445 kts 184°
2026-05-07 08:30 43.48916 49.49494 36049 ft 435 kts 200°
2026-05-07 08:31 43.46175 49.47850 36065 ft 429 kts 214°
2026-05-07 08:31 43.43876 49.45350 36071 ft 425 kts 227°
2026-05-07 08:31 43.42081 49.42149 36063 ft 424 kts 240°
2026-05-07 08:31 43.40868 49.38445 36074 ft 425 kts 251°
2026-05-07 08:32 43.40286 49.34459 36056 ft 429 kts 264°
2026-05-07 08:32 43.40308 49.30341 36078 ft 431 kts 269°
2026-05-07 08:32 43.40671 49.22091 36068 ft 433 kts 270°
2026-05-07 08:33 43.41076 49.13826 36064 ft 434 kts 270°
2026-05-07 08:33 43.41432 49.05532 36065 ft 434 kts 270°
2026-05-07 08:34 43.41754 48.97228 36063 ft 435 kts 270°
2026-05-07 08:34 43.42062 48.88908 36068 ft 436 kts 270°
2026-05-07 08:35 43.42363 48.80566 36064 ft 436 kts 269°
2026-05-07 08:35 43.42660 48.72221 36061 ft 437 kts 270°
2026-05-07 08:36 43.42950 48.63878 36064 ft 438 kts 269°
2026-05-07 08:36 43.43236 48.55498 36063 ft 439 kts 269°
2026-05-07 08:37 43.43517 48.47104 36061 ft 439 kts 269°
2026-05-07 08:37 43.43789 48.38756 36059 ft 440 kts 269°
2026-05-07 08:38 43.44059 48.30294 36058 ft 441 kts 269°
2026-05-07 08:38 43.44321 48.21900 36059 ft 442 kts 269°
2026-05-07 08:39 43.44578 48.13444 36058 ft 442 kts 269°
2026-05-07 08:39 43.44830 48.04984 36060 ft 443 kts 269°
2026-05-07 08:40 43.45075 47.96511 36053 ft 443 kts 269°
2026-05-07 08:40 43.45315 47.88027 36049 ft 444 kts 269°
2026-05-07 08:41 43.45547 47.79585 36050 ft 444 kts 269°
2026-05-07 08:41 43.45774 47.71084 36049 ft 444 kts 269°
2026-05-07 08:42 43.45996 47.62560 36051 ft 445 kts 269°
2026-05-07 08:42 43.46211 47.54051 36051 ft 445 kts 269°
2026-05-07 08:43 43.46420 47.45526 36060 ft 445 kts 269°
2026-05-07 08:43 43.46623 47.37004 36059 ft 446 kts 269°
2026-05-07 08:44 43.46818 47.28511 36063 ft 446 kts 269°
2026-05-07 08:44 43.47009 47.19958 36064 ft 447 kts 269°
2026-05-07 08:45 43.47193 47.11395 36064 ft 447 kts 269°
2026-05-07 08:45 43.47372 47.02820 36074 ft 448 kts 269°
2026-05-07 08:46 43.47543 46.94259 36071 ft 448 kts 269°
2026-05-07 08:46 43.47709 46.85681 36063 ft 448 kts 269°
2026-05-07 08:47 43.47869 46.77090 36084 ft 449 kts 269°
2026-05-07 08:47 43.48021 46.68525 36086 ft 449 kts 269°
2026-05-07 08:48 43.48168 46.59930 36085 ft 449 kts 269°
2026-05-07 08:48 43.48308 46.51318 36085 ft 450 kts 269°
2026-05-07 08:49 43.48443 46.42719 36090 ft 450 kts 269°
2026-05-07 08:49 43.48571 46.34081 36085 ft 451 kts 269°
2026-05-07 08:50 43.48693 46.25457 36094 ft 451 kts 269°
2026-05-07 08:50 43.48810 46.16802 36092 ft 451 kts 269°
2026-05-07 08:51 43.48920 46.08141 36095 ft 452 kts 269°
2026-05-07 08:51 43.49243 45.99548 36100 ft 454 kts 274°
2026-05-07 08:52 43.49983 45.90840 36110 ft 455 kts 275°
2026-05-07 08:52 43.50750 45.82238 36105 ft 456 kts 274°
2026-05-07 08:53 43.51486 45.73559 36104 ft 457 kts 274°
2026-05-07 08:53 43.52196 45.64853 36101 ft 457 kts 274°
2026-05-07 08:54 43.52895 45.56143 36112 ft 458 kts 274°
2026-05-07 08:54 43.53589 45.47398 36110 ft 458 kts 274°
2026-05-07 08:55 43.54277 45.38669 36115 ft 459 kts 274°
2026-05-07 08:55 43.54960 45.29912 36115 ft 459 kts 274°
2026-05-07 08:56 43.55637 45.21140 36121 ft 460 kts 274°
2026-05-07 08:56 43.56309 45.12363 36132 ft 460 kts 274°
2026-05-07 08:57 43.56969 45.03631 36124 ft 461 kts 274°
2026-05-07 08:57 43.57634 44.94780 36132 ft 462 kts 274°
2026-05-07 08:58 43.58285 44.85997 36130 ft 462 kts 274°
2026-05-07 08:58 43.58931 44.77182 36141 ft 462 kts 274°
2026-05-07 08:59 43.59573 44.68340 36145 ft 463 kts 274°
2026-05-07 08:59 43.60205 44.59505 36141 ft 464 kts 274°
2026-05-07 09:00 43.60836 44.50623 36145 ft 464 kts 274°
2026-05-07 09:00 43.61459 44.41756 36145 ft 465 kts 274°
2026-05-07 09:01 43.62074 44.32906 36130 ft 466 kts 274°
2026-05-07 09:01 43.62686 44.24002 36124 ft 466 kts 274°
2026-05-07 09:02 43.63292 44.15094 36131 ft 466 kts 274°
2026-05-07 09:02 43.63699 44.07601 36116 ft 467 kts 271°
2026-05-07 09:03 43.63926 43.98707 36123 ft 467 kts 270°
2026-05-07 09:03 43.64121 43.89742 36125 ft 467 kts 271°
2026-05-07 09:04 43.64347 43.80710 36123 ft 468 kts 271°
2026-05-07 09:04 43.64585 43.71798 36131 ft 468 kts 271°
2026-05-07 09:05 43.64824 43.62792 36129 ft 469 kts 271°
2026-05-07 09:05 43.65056 43.53788 36127 ft 469 kts 271°
2026-05-07 09:06 43.65278 43.44828 36127 ft 470 kts 271°
2026-05-07 09:06 43.65495 43.35805 36127 ft 471 kts 271°
2026-05-07 09:07 43.65705 43.26706 36127 ft 472 kts 271°
2026-05-07 09:07 43.65907 43.17691 36132 ft 472 kts 271°
2026-05-07 09:08 43.66103 43.08624 36134 ft 472 kts 271°
2026-05-07 09:08 43.66292 42.99530 36139 ft 473 kts 271°
2026-05-07 09:09 43.66473 42.90486 36146 ft 474 kts 271°
2026-05-07 09:09 43.66649 42.81337 36144 ft 475 kts 271°
2026-05-07 09:10 43.66817 42.72253 36145 ft 475 kts 271°
2026-05-07 09:10 43.66978 42.63109 36153 ft 476 kts 271°
2026-05-07 09:11 43.67132 42.53971 36146 ft 477 kts 271°
2026-05-07 09:11 43.67279 42.44817 36154 ft 477 kts 271°
2026-05-07 09:12 43.67419 42.35644 36148 ft 478 kts 271°
2026-05-07 09:12 43.67551 42.26452 36149 ft 478 kts 271°
2026-05-07 09:13 43.67675 42.17315 36146 ft 479 kts 271°
2026-05-07 09:13 43.67793 42.08123 36145 ft 479 kts 271°
2026-05-07 09:14 43.67904 41.98912 36144 ft 480 kts 271°
2026-05-07 09:14 43.68008 41.89689 36153 ft 480 kts 271°
2026-05-07 09:15 43.68104 41.80459 36152 ft 481 kts 271°
2026-05-07 09:15 43.68193 41.71230 36151 ft 481 kts 271°
2026-05-07 09:16 43.68275 41.61991 36158 ft 481 kts 271°
2026-05-07 09:16 43.68349 41.52741 36154 ft 481 kts 271°
2026-05-07 09:17 43.68416 41.43498 36151 ft 481 kts 270°
2026-05-07 09:17 43.68475 41.34246 36155 ft 481 kts 271°
2026-05-07 09:18 43.68528 41.25005 36152 ft 481 kts 270°
2026-05-07 09:18 43.68543 41.22031 36147 ft 481 kts 270°
2026-05-07 09:19 43.68586 41.12800 36154 ft 480 kts 270°
2026-05-07 09:19 43.68622 41.03576 36152 ft 480 kts 270°
2026-05-07 09:20 43.68652 40.94369 36154 ft 479 kts 270°
2026-05-07 09:20 43.68380 40.85191 36152 ft 478 kts 262°
2026-05-07 09:21 43.67407 40.76126 36160 ft 478 kts 261°
2026-05-07 09:21 43.66383 40.67060 36161 ft 478 kts 261°
2026-05-07 09:22 43.65393 40.57979 36168 ft 478 kts 262°
2026-05-07 09:22 43.64423 40.48912 36167 ft 478 kts 262°
2026-05-07 09:23 43.63447 40.39823 36182 ft 478 kts 262°
2026-05-07 09:23 43.62464 40.30745 36199 ft 478 kts 262°
2026-05-07 09:24 43.61477 40.21717 36203 ft 479 kts 262°
2026-05-07 09:24 43.60477 40.12629 36217 ft 479 kts 262°
2026-05-07 09:25 43.59471 40.03561 36234 ft 478 kts 262°
2026-05-07 09:25 43.58458 39.94494 36232 ft 478 kts 262°
2026-05-07 09:26 43.57441 39.85438 36231 ft 478 kts 261°
2026-05-07 09:26 43.56488 39.76402 36220 ft 478 kts 268°
2026-05-07 09:27 43.56633 39.71786 36235 ft 475 kts 279°
2026-05-07 09:27 43.57381 39.67351 36223 ft 474 kts 290°
2026-05-07 09:28 43.60706 39.58243 36224 ft 472 kts 300°
2026-05-07 09:28 43.63935 39.50359 36211 ft 472 kts 300°
2026-05-07 09:29 43.67120 39.42428 36225 ft 473 kts 300°
2026-05-07 09:29 43.70213 39.34589 36203 ft 461 kts 300°
2026-05-07 09:30 43.73248 39.26846 36207 ft 455 kts 300°
2026-05-07 09:30 43.74756 39.22993 36062 ft 457 kts 300°
2026-05-07 09:30 43.76270 39.19125 35714 ft 455 kts 300°
2026-05-07 09:30 43.77761 39.15308 35299 ft 450 kts 300°
2026-05-07 09:31 43.79243 39.11507 34898 ft 446 kts 300°
2026-05-07 09:31 43.80708 39.07748 34495 ft 443 kts 300°
2026-05-07 09:31 43.82162 39.04013 34043 ft 440 kts 301°
2026-05-07 09:31 43.83609 39.00294 33608 ft 436 kts 301°
2026-05-07 09:32 43.85038 38.96615 33194 ft 432 kts 301°
2026-05-07 09:32 43.86455 38.92962 32774 ft 428 kts 301°
2026-05-07 09:32 43.87861 38.89331 32368 ft 425 kts 301°
2026-05-07 09:32 43.89248 38.85748 31966 ft 421 kts 301°
2026-05-07 09:33 43.90612 38.82217 31584 ft 418 kts 301°
2026-05-07 09:33 43.91976 38.78682 31202 ft 415 kts 302°
2026-05-07 09:33 43.93594 38.75346 30797 ft 407 kts 314°
2026-05-07 09:33 43.95544 38.72639 30518 ft 397 kts 324°
2026-05-07 09:34 43.97760 38.70461 30217 ft 387 kts 334°
2026-05-07 09:34 44.00105 38.68652 29852 ft 383 kts 335°
2026-05-07 09:34 44.02437 38.66919 29453 ft 379 kts 335°
2026-05-07 09:34 44.04751 38.65205 29086 ft 375 kts 335°
2026-05-07 09:35 44.07053 38.63488 28707 ft 371 kts 335°
2026-05-07 09:35 44.09311 38.61788 28327 ft 369 kts 335°
2026-05-07 09:35 44.11560 38.60082 27967 ft 367 kts 334°
2026-05-07 09:35 44.13802 38.58374 27591 ft 368 kts 334°
2026-05-07 09:36 44.16071 38.56642 27236 ft 377 kts 334°
2026-05-07 09:36 44.18394 38.54866 26845 ft 382 kts 334°
2026-05-07 09:36 44.20717 38.53083 26442 ft 379 kts 334°
2026-05-07 09:36 44.23018 38.51316 26053 ft 376 kts 333°
2026-05-07 09:37 44.25301 38.49562 25674 ft 373 kts 333°
2026-05-07 09:37 44.27528 38.47850 25308 ft 371 kts 333°
2026-05-07 09:37 44.29816 38.46090 24931 ft 368 kts 333°
2026-05-07 09:37 44.32054 38.44366 24564 ft 366 kts 333°
2026-05-07 09:38 44.34338 38.42885 24168 ft 361 kts 347°
2026-05-07 09:38 44.36799 38.42579 23821 ft 354 kts
2026-05-07 09:38 44.39155 38.43371 23226 ft 353 kts 25°
2026-05-07 09:38 44.41308 38.45098 22836 ft 349 kts 34°
2026-05-07 09:39 44.43308 38.47005 22434 ft 347 kts 35°
2026-05-07 09:39 44.45274 38.48939 22055 ft 344 kts 36°
2026-05-07 09:39 44.47222 38.50857 21699 ft 341 kts 36°
2026-05-07 09:39 44.49132 38.52727 21341 ft 339 kts 36°
2026-05-07 09:40 44.51066 38.54606 20986 ft 336 kts 35°
2026-05-07 09:40 44.52982 38.56460 20619 ft 334 kts 35°
2026-05-07 09:40 44.54890 38.58302 20285 ft 332 kts 35°
2026-05-07 09:40 44.56784 38.60129 19936 ft 330 kts 35°
2026-05-07 09:41 44.58671 38.61947 19586 ft 328 kts 35°
2026-05-07 09:41 44.60545 38.63754 19254 ft 326 kts 35°
2026-05-07 09:41 44.62411 38.65555 18909 ft 324 kts 35°
2026-05-07 09:41 44.64267 38.67346 18560 ft 323 kts 35°
2026-05-07 09:42 44.66090 38.69108 18183 ft 321 kts 35°
2026-05-07 09:42 44.67927 38.70884 17823 ft 320 kts 35°
2026-05-07 09:42 44.69776 38.72673 17462 ft 318 kts 35°
2026-05-07 09:42 44.71566 38.74408 17123 ft 316 kts 35°
2026-05-07 09:43 44.73387 38.76171 16817 ft 312 kts 35°
2026-05-07 09:43 44.75150 38.77880 16470 ft 311 kts 35°
2026-05-07 09:43 44.76852 38.79732 16121 ft 309 kts 47°
2026-05-07 09:43 44.78014 38.82250 15791 ft 308 kts 67°
2026-05-07 09:44 44.78764 38.85066 15470 ft 307 kts 70°
2026-05-07 09:44 44.79451 38.87906 15118 ft 306 kts 71°
2026-05-07 09:44 44.80124 38.90748 14800 ft 306 kts 71°
2026-05-07 09:44 44.80799 38.93588 14472 ft 306 kts 71°
2026-05-07 09:45 44.81480 38.96435 14135 ft 306 kts 71°
2026-05-07 09:45 44.82164 38.99275 13792 ft 306 kts 71°
2026-05-07 09:45 44.82848 39.02104 13423 ft 305 kts 71°
2026-05-07 09:45 44.83531 39.04922 13090 ft 303 kts 71°
2026-05-07 09:46 44.84213 39.07728 12788 ft 302 kts 71°
2026-05-07 09:46 44.84894 39.10532 12443 ft 301 kts 71°
2026-05-07 09:46 44.85568 39.13311 12114 ft 299 kts 71°
2026-05-07 09:46 44.86239 39.16082 11815 ft 298 kts 71°
2026-05-07 09:47 44.86908 39.18843 11483 ft 297 kts 71°
2026-05-07 09:47 44.87575 39.21597 11165 ft 296 kts 71°
2026-05-07 09:47 44.88235 39.24327 10859 ft 295 kts 71°
2026-05-07 09:47 44.88898 39.27074 10533 ft 295 kts 71°
2026-05-07 09:48 44.89554 39.29794 10345 ft 289 kts 71°
2026-05-07 09:48 44.90191 39.32444 10191 ft 283 kts 71°
2026-05-07 09:48 44.90824 39.35073 9876 ft 282 kts 71°
2026-05-07 09:48 44.91444 39.37653 9570 ft 281 kts 71°
2026-05-07 09:49 44.92070 39.40257 9262 ft 280 kts 71°
2026-05-07 09:49 44.92694 39.42861 8964 ft 278 kts 71°
2026-05-07 09:49 44.93313 39.45444 8590 ft 280 kts 72°
2026-05-07 09:49 44.93939 39.48063 8221 ft 282 kts 72°
2026-05-07 09:50 44.94567 39.50688 7904 ft 281 kts 72°
2026-05-07 09:50 44.94982 39.52423 7706 ft 281 kts 72°
2026-05-07 09:50 44.95614 39.55074 7383 ft 282 kts 72°
2026-05-07 09:50 44.96231 39.57661 7085 ft 281 kts 71°
2026-05-07 09:51 44.97284 39.59928 6915 ft 277 kts 38°
2026-05-07 09:51 44.99036 39.60948 6674 ft 276 kts
2026-05-07 09:51 45.00870 39.60369 6422 ft 273 kts 329°
2026-05-07 09:51 45.02486 39.58991 6156 ft 271 kts 337°
2026-05-07 09:52 45.04320 39.58407 5892 ft 269 kts 353°
2026-05-07 09:52 45.06184 39.58066 5642 ft 269 kts 351°
2026-05-07 09:52 45.08033 39.57605 5346 ft 269 kts 348°
2026-05-07 09:52 45.09850 39.56999 5066 ft 269 kts 344°
2026-05-07 09:53 45.11637 39.56234 4788 ft 267 kts 340°
2026-05-07 09:53 45.13373 39.55335 4586 ft 264 kts 337°
2026-05-07 09:53 45.15036 39.54334 4464 ft 256 kts 334°
2026-05-07 09:53 45.16598 39.53219 4351 ft 247 kts 329°
2026-05-07 09:54 45.17974 39.51875 4284 ft 234 kts 310°
2026-05-07 09:54 45.18580 39.49866 4148 ft 218 kts 269°
2026-05-07 09:54 45.18208 39.47910 4106 ft 203 kts 244°
2026-05-07 09:54 45.17617 39.46115 4090 ft 204 kts 243°
2026-05-07 09:55 45.16932 39.44337 3879 ft 207 kts 240°
2026-05-07 09:55 45.16211 39.42615 3631 ft 199 kts 237°
2026-05-07 09:55 45.15440 39.41038 3381 ft 190 kts 233°
2026-05-07 09:55 45.14685 39.39607 3202 ft 172 kts 232°
2026-05-07 09:56 45.13976 39.38294 2998 ft 160 kts 232°
2026-05-07 09:56 45.13325 39.37095 2798 ft 145 kts 232°
2026-05-07 09:56 45.12731 39.36001 2605 ft 141 kts 233°
2026-05-07 09:56 45.12141 39.34911 2416 ft 139 kts 233°
2026-05-07 09:57 45.11563 39.33821 2278 ft 149 kts 232°
2026-05-07 09:57 45.10942 39.32695 2111 ft 139 kts 233°
2026-05-07 09:57 45.10341 39.31594 1961 ft 145 kts 233°
2026-05-07 09:57 45.09741 39.30482 1738 ft 143 kts 232°
2026-05-07 09:58 45.09096 39.29401 1422 ft 139 kts 236°
2026-05-07 09:58 45.08566 39.28306 1288 ft 134 kts 233°
2026-05-07 09:58 45.08012 39.27243 1139 ft 138 kts 234°
2026-05-07 09:58 45.07424 39.26145 1004 ft 139 kts 232°
2026-05-07 09:59 45.06838 39.25098 932 ft 141 kts 232°
2026-05-07 09:59 45.06233 39.23992 776 ft 140 kts 232°
2026-05-07 09:59 45.05649 39.22880 560 ft 141 kts 232°
2026-05-07 09:59 45.05055 39.21802 385 ft 137 kts 232°
2026-05-07 10:00 45.04477 39.20731 239 ft 137 kts 233°
2026-05-07 10:00 45.03906 39.19654 116 ft 129 kts 230°
2026-05-07 10:00 45.03418 39.18807 114 ft 90 kts 232°
2026-05-07 10:00 45.03125 39.18267 113 ft 50 kts 233°
2026-05-07 10:01 45.03011 39.18058 113 ft 21 kts 232°
2026-05-07 10:01 45.02926 39.17902 114 ft 19 kts 232°
2026-05-07 10:01 45.02851 39.17762 114 ft 17 kts 233°
2026-05-07 10:01 45.02781 39.17632 112 ft 16 kts 232°
2026-05-07 10:02 45.02713 39.17510 112 ft 15 kts 231°
2026-05-07 10:02 45.02656 39.17400 111 ft 10 kts 236°
2026-05-07 10:02 45.02641 39.17308 110 ft 10 kts 289°
2026-05-07 10:02 45.02696 39.17232 107 ft 13 kts 323°
2026-05-07 10:03 45.02771 39.17155 106 ft 13 kts 321°
2026-05-07 10:03 45.02839 39.17072 105 ft 13 kts 317°
2026-05-07 10:03 45.02907 39.16995 105 ft 12 kts 323°
2026-05-07 10:03 45.02975 39.16922 105 ft 12 kts 324°
2026-05-07 10:04 45.03043 39.16853 105 ft 12 kts 323°
2026-05-07 10:04 45.03107 39.16783 105 ft 12 kts 321°
2026-05-07 10:04 45.03169 39.16713 105 ft 11 kts 322°
2026-05-07 10:04 45.03230 39.16647 105 ft 11 kts 323°
2026-05-07 10:05 45.03290 39.16583 105 ft 11 kts 322°
2026-05-07 10:05 45.03354 39.16513 105 ft 12 kts 322°
2026-05-07 10:05 45.03426 39.16437 105 ft 14 kts 323°
2026-05-07 10:05 45.03504 39.16352 105 ft 15 kts 323°
2026-05-07 10:06 45.03587 39.16262 105 ft 15 kts 322°
2026-05-07 10:06 45.03668 39.16174 105 ft 14 kts 322°
2026-05-07 10:06 45.03732 39.16094 104 ft 11 kts 300°
2026-05-07 10:06 45.03738 39.15998 105 ft 10 kts 269°
2026-05-07 10:07 45.03738 39.15900 105 ft 11 kts 269°
2026-05-07 10:07 45.03736 39.15785 105 ft 13 kts 269°
2026-05-07 10:07 45.03736 39.15650 105 ft 14 kts 272°
2026-05-07 10:07 45.03760 39.15517 104 ft 14 kts 291°
2026-05-07 10:08 45.03799 39.15382 104 ft 15 kts 291°
2026-05-07 10:08 45.03832 39.15238 105 ft 15 kts 272°
2026-05-07 10:08 45.03795 39.15108 105 ft 14 kts 240°
2026-05-07 10:08 45.03752 39.14997 105 ft 13 kts 240°
2026-05-07 10:09 45.03709 39.14890 105 ft 12 kts 240°
2026-05-07 10:09 45.03667 39.14786 105 ft 12 kts 240°
2026-05-07 10:09 45.03627 39.14684 105 ft 12 kts 241°
2026-05-07 10:09 45.03586 39.14583 105 ft 12 kts 241°
2026-05-07 10:10 45.03545 39.14479 105 ft 12 kts 240°
2026-05-07 10:10 45.03508 39.14383 105 ft 11 kts 240°
2026-05-07 10:10 45.03490 39.14318 105 ft 4 kts 284°
2026-05-07 10:10 45.03506 39.14293 104 ft 2 kts 323°
2026-05-07 10:11 45.03520 39.14281 105 ft 2 kts 330°
2026-05-07 10:11 45.03526 39.14276 105 ft 0 kts 331°